EST,Max TemperatureF,Mean TemperatureF,Min TemperatureF,Max Dew PointF,MeanDew PointF,Min DewpointF,Max Humidity, Mean Humidity, Min Humidity, Max Sea Level PressureIn, Mean Sea Level PressureIn, Min Sea Level PressureIn, Max VisibilityMiles, Mean VisibilityMiles, Min VisibilityMiles, Max Wind SpeedMPH, Mean Wind SpeedMPH, Max Gust SpeedMPH,PrecipitationIn, CloudCover, Events, WindDirDegrees
2012-11-1,54,42,30,32,23,16,72,51,24,29.91,29.86,29.83,10,10,10,16,7,24,0.00,4,,278
2012-11-2,51,41,31,32,29,26,85,66,38,30.12,29.99,29.84,10,10,10,12,4,16,0.00,1,,346
2012-11-3,40,36,31,34,32,28,89,84,78,30.21,30.14,30.11,10,10,4,10,3,,0.13,6,Rain-Thunderstorm,43
2012-11-4,43,35,27,31,28,24,89,77,57,30.21,30.18,30.15,10,10,7,10,4,,0.00,3,,360
2012-11-5,46,34,21,30,25,19,90,74,47,30.18,30.15,30.10,10,9,5,9,3,,0.00,0,,64
2012-11-6,48,35,22,36,27,19,89,71,42,30.10,30.00,29.91,10,8,3,9,3,,0.01,4,Rain,177
2012-11-7,50,40,30,38,33,28,89,75,49,30.14,30.03,29.90,10,6,2,9,3,,0.04,4,Rain,14
2012-11-8,46,36,25,41,30,23,93,82,60,30.25,30.19,30.14,10,4,0,8,1,,0.00,5,Fog,250
2012-11-9,62,45,28,39,34,26,92,67,39,30.19,30.12,30.04,10,7,0,15,5,20,0.00,0,Fog,163
2012-11-10,72,60,48,46,41,36,68,49,27,30.12,30.08,30.04,10,10,10,18,10,28,0.00,1,,186
2012-11-11,67,60,52,48,42,38,67,50,42,30.14,30.05,29.96,10,10,10,25,14,37,0.00,2,,177
2012-11-12,57,44,31,52,32,22,91,76,53,30.37,30.17,29.96,10,9,0,23,12,29,0.71,5,Rain-Snow,261
2012-11-13,39,32,25,24,21,16,84,66,40,30.51,30.46,30.37,10,10,5,8,5,,0.00,0,,298
2012-11-14,41,32,23,27,23,20,87,71,49,30.53,30.47,30.39,10,10,7,9,2,,0.00,0,,91
2012-11-15,44,33,22,30,25,20,89,78,52,30.40,30.36,30.33,10,6,2,5,1,,0.00,0,,43
2012-11-16,49,36,23,32,26,20,90,72,37,30.49,30.44,30.38,10,6,2,6,1,,0.00,0,,64
2012-11-17,55,40,24,33,27,21,88,68,35,30.56,30.50,30.46,10,7,2,7,2,,0.00,0,,86
2012-11-18,59,44,28,31,28,24,85,61,29,30.46,30.41,30.36,10,10,7,7,1,,0.00,0,,107
2012-11-19,58,44,31,36,30,25,82,61,33,30.36,30.28,30.17,10,10,10,6,1,,0.00,1,,193
2012-11-20,55,48,42,42,40,34,85,69,52,30.17,30.12,30.07,10,10,7,6,2,,0.02,8,Rain,249
2012-11-21,59,46,33,45,39,31,93,80,54,30.27,30.21,30.16,10,4,0,6,2,,0.00,2,Fog,315
2012-11-22,62,48,33,46,37,32,92,69,37,30.19,30.09,29.95,10,6,0,20,6,30,0.01,2,Fog-Rain,191
2012-11-23,53,40,27,49,28,16,88,70,59,30.21,30.07,29.92,10,10,4,25,16,36,0.12,6,Rain,284
2012-11-24,31,27,23,20,18,16,82,68,57,30.25,30.19,30.07,10,10,10,10,8,18,0.00,7,,266
2012-11-25,46,36,27,30,25,20,75,63,47,30.07,29.96,29.89,10,10,10,17,9,22,0.00,1,,227
2012-11-26,46,37,28,29,27,24,87,69,45,30.30,30.17,30.04,10,10,5,14,5,18,0.00,4,Snow,352
2012-11-27,37,30,23,28,23,19,89,76,49,30.40,30.32,30.28,10,8,3,8,4,,0.00,2,Snow,339
2012-11-28,42,34,25,24,22,19,84,68,47,30.41,30.35,30.29,10,10,7,9,5,,0.00,1,,249
2012-11-29,49,37,25,29,25,20,83,64,45,30.36,30.27,30.16,10,10,7,16,6,22,0.00,0,,179
2012-11-30,56,45,34,35,30,26,81,58,38,30.16,30.14,30.09,10,10,10,16,7,21,0.00,1,,197